Location: Unspecified
(0.0000°N, 0.0000°E)
Time: 09:06:10
(UTC+00:00)

RS-8 - Pass Details

Date: 09 October 2022
Orbit: 1579 x 1660 km, 83.0° (Epoch: 01 December)

Event Time Altitude Azimuth Distance (km) Brightness Sun altitude
Rises 20:24:51 0° 188° (S) 4,770 10.8 -39.1°
Reaches altitude 10° 20:27:49 10° 190° (S) 3,782 10.2 -39.8°
Enters shadow 20:35:23 61° 224° (SW) 1,756 8.2 -41.7°
